Погода в Карагали

Россия / Астраханская область     46°15′43″N   47°59′21″E
темп.,
°C
ветер,
м/с
пор.,
м/с
влажн.,
%
обл.,
%
осадки,
мм/ч
давл.,
гПа
погр.,
м
25 июня, сб
сб2501:00+22зюз22529 0.0 100932
04:00+21с344544 0.0 100969
07:00+23ссз2441100 0.0 1010166
10:00+28сз3231100 0.0 10111074
13:00+31зсз2224100 0.0 10092362
16:00+32сз322394 0.0 10082701
19:00+32сз22246 0.0 10082229
22:00+25юз23398 0.0 100952
26 июня, вс
вс2601:00+25зсз344174 0.0 100863
04:00+24ссв355037 0.0 1008109
07:00+26св61151100 0.0 1008476
10:00+32всв673271 0.0 10081995
13:00+35всв662574 0.0 10072972
16:00+36в782482 0.0 10063020
19:00+34в692879 0.0 10062161
22:00+30св8132963 0.0 1008897
27 июня, пн
пн2701:00+28всв9152570 0.0 1010912
04:00+25св8142896 0.1 1011687
07:00+24св8143692 0.0 1012635
10:00+28всв9102864 0.0 10121188
13:00+32св8820100 0.0 10121774
16:00+32св7818100 0.2 10111780
19:00+31в68198 0.0 10111589
22:00+24всв353364 0.1 1012163
28 июня, вт
вт2801:00+22св3741100 0.9 1012160
04:00+21св3746100 1.5 1012143
07:00+23св4837100 0.0 1012359
10:00+26св6727100 0.0 10121047
13:00+30св6719100 0.0 10111466
16:00+32св561548 0.0 10101917
19:00+32св571840 0.0 10101836
22:00+27ююз112663 0.0 101015
29 июня, ср
ср2901:00+26всв61147100 0.0 1011562
04:00+23всв71134100 0.0 1013566
07:00+21всв810339 0.1 1015656
10:00+24св78275 0.1 10151095
13:00+27св66245 0.0 10151659
16:00+28ссв65174 0.0 10151973
19:00+26ссв65160 0.0 10151787
22:00+21св59237 0.0 1016231